Location: Minneapolis
(44.9800°N, 93.2640°W)
Time: 02:35:31
(UTC-05:00)

OTV 5 (USA 277) - Visible Passes

Search period start: 18 June 2018 00:00
Search period end: 28 June 2018 00:00
Orbit: 313 x 320 km, 54.5° (Epoch: 16 June)

Date Brightness Start Highest point End Pass type
(mag) Time Alt. Az. Time Alt. Az. Time Alt. Az.
18 Jun ? 00:53:24 10° NNW 00:54:25 11° N 00:55:25 10° NNE visible
18 Jun ? 02:27:34 10° NNW 02:29:34 18° NNE 02:31:33 10° ENE visible
18 Jun ? 04:01:26 10° NW 04:04:09 77° SW 04:06:52 10° SE visible
18 Jun ? 21:56:37 10° WSW 21:59:16 57° NNW 22:01:57 10° NE visible
18 Jun ? 23:32:25 10° NW 23:34:03 14° NNW 23:35:41 10° NNE visible
19 Jun ? 01:08:04 10° NNW 01:09:15 12° N 01:10:26 10° NNE visible
19 Jun ? 02:41:47 10° NW 02:44:14 29° NNE 02:46:41 10° E visible
19 Jun ? 04:16:08 10° WNW 04:18:31 27° SW 04:20:54 10° SSE visible
19 Jun ? 22:11:28 10° W 22:13:51 27° NNW 22:16:14 10° NE visible
19 Jun ? 23:47:43 10° NNW 23:48:51 12° N 23:50:00 10° NNE visible
20 Jun ? 01:22:21 10° NNW 01:24:04 15° NNE 01:25:46 10° NE visible
20 Jun ? 02:56:06 10° NW 02:58:47 64° NNE 03:01:29 10° ESE visible
20 Jun ? 04:31:48 10° WSW 04:31:57 10° WSW 04:31:57 10° WSW visible
20 Jun ? 22:26:38 10° WNW 22:28:32 17° NNW 22:30:27 10° NNE visible
21 Jun ? 00:02:41 10° NNW 00:03:41 11° N 00:04:43 10° NNE visible
21 Jun ? 01:36:33 10° NNW 01:38:47 22° NNE 01:40:35 13° ENE visible
21 Jun ? 03:10:36 10° WNW 03:11:19 16° WNW 03:11:19 16° WNW visible
21 Jun ? 22:41:57 10° NW 22:43:19 13° N 22:44:40 10° NNE visible
22 Jun ? 00:17:06 10° NNW 00:18:31 13° N 00:19:57 10° NE visible
22 Jun ? 01:50:48 10° NW 01:52:49 35° N 01:52:49 35° N visible
22 Jun ? 22:57:08 10° NNW 22:58:08 11° N 22:59:08 10° NNE visible
23 Jun ? 00:31:19 10° NNW 00:33:17 18° NNE 00:34:50 12° ENE visible
23 Jun ? 02:05:11 10° NW 02:05:40 14° WNW 02:05:40 14° WNW visible
23 Jun ? 23:11:48 10° NNW 23:12:58 12° N 23:14:08 10° NNE visible
24 Jun ? 00:45:32 10° NW 00:47:56 29° NNE 00:47:56 29° NNE visible
24 Jun ? 21:51:27 10° NNW 21:52:35 12° N 21:53:43 10° NNE visible
24 Jun ? 23:26:05 10° NNW 23:27:47 15° NNE 23:29:28 10° NE visible
25 Jun ? 00:59:50 10° NW 01:01:12 26° NW 01:01:12 26° NW visible
25 Jun ? 22:06:25 10° NNW 22:07:25 11° N 22:08:25 10° NNE visible
25 Jun ? 23:40:17 10° NNW 23:42:30 22° NNE 23:43:43 16° ENE visible
26 Jun ? 01:14:20 10° WNW 01:14:33 12° WNW 01:14:33 12° WNW visible
26 Jun ? 22:20:50 10° NNW 22:22:14 13° N 22:23:39 10° NE visible
26 Jun ? 23:54:32 10° NW 23:57:07 40° NNE 23:57:09 40° NNE visible
27 Jun ? 22:35:03 10° NNW 22:37:01 18° NNE 22:38:58 10° ENE visible
